Location: Belvedere Heights
(33.9836°N, 117.3109°W)
Time: 08:34:07
(UTC+00:00)

SJ-12 - Pass Details

Date: 21 March 2023
Orbit: 560 x 571 km, 97.7° (Epoch: 01 June)

Event Time Altitude Azimuth Distance (km) Brightness Sun altitude
Rises 13:01:15 0° 8° (N) 2,755 7.6 -11.3°
Reaches altitude 10° 13:03:24 10° 6° (N) 1,855 6.7 -10.8°
Maximum altitude 13:07:23 69° 284° (WNW) 603 3.8 -10.0°
Drops below altitude 10° 13:11:20 10° 201° (SSW) 1,841 6.2 -9.2°
Sets 13:13:28 0° 199° (SSW) 2,733 7.1 -8.8°
